Location: Kuppenheim
(48.8299°N, 8.2568°E)
Time: 14:39:34
(UTC+00:00)

Lacrosse 5 rocket - Pass Details

Date: 20 June 2021
Orbit: 460 x 634 km, 57.0° (Epoch: 30 July)

Event Time Altitude Azimuth Distance (km) Brightness Sun altitude
Rises 01:28:59 0° 304° (NW) 2,489 4.8 -12.9°
Reaches altitude 10° 01:31:13 10° 314° (NW) 1,614 3.9 -12.7°
Maximum altitude 01:34:34 35° 22° (NNE) 767 2.8 -12.4°
Drops below altitude 10° 01:37:59 10° 91° (E) 1,645 4.2 -12.2°
Sets 01:40:17 0° 100° (E) 2,543 5.0 -12.0°
